| time (UTC) | temp C | wind direction | speed KPH | gust KPH | rain 1hr cm | rain 24hr cm | rain mn cm | humidity % | barometer mb |
| 20260831030002 | 24 | 168 | 0.0 | 0.0 | 0.00 | 0.00 | 0.00 | 37 | 1011.7 |
| 20260831024502 | 25 | 168 | 0.0 | 0.0 | 0.00 | 0.00 | 0.00 | 34 | 1011.7 |
| 20260831023006 | 26 | 168 | 0.0 | 0.0 | 0.00 | 0.00 | 0.00 | 30 | 1011.5 |
| 20260831021502 | 27 | 168 | 0.0 | 0.0 | 0.00 | 0.00 | 0.00 | 28 | 1011.5 |
| 20260831020001 | 28 | 168 | 0.0 | 3.2 | 0.00 | 0.00 | 0.00 | 27 | 1011.5 |
| 20260831014602 | 28 | 220 | 0.0 | 4.8 | 0.00 | 0.00 | 0.00 | 26 | 1011.6 |
| 20260831013003 | 28 | 194 | 1.6 | 4.8 | 0.00 | 0.00 | 0.00 | 25 | 1011.6 |
| 20260831011503 | 28 | 184 | 0.0 | 3.2 | 0.00 | 0.00 | 0.00 | 24 | 1011.6 |
| 20260831010005 | 29 | 246 | 1.6 | 6.4 | 0.00 | 0.00 | 0.00 | 24 | 1011.7 |
| 20260831004503 | 29 | 327 | 0.0 | 4.8 | 0.00 | 0.00 | 0.00 | 24 | 1011.8 |
| 20260831003002 | 29 | 190 | 3.2 | 6.4 | 0.00 | 0.00 | 0.00 | 24 | 1012.0 |
| 20260831001502 | 30 | 177 | 0.0 | 6.4 | 0.00 | 0.00 | 0.00 | 25 | 1012.1 |
| 20260831000002 | 30 | 94 | 0.0 | 6.4 | 0.00 | 0.00 | 0.00 | 24 | 1012.1 |
| 20260830234506 | 30 | 240 | 1.6 | 6.4 | 0.00 | 0.00 | 0.00 | 23 | 1012.2 |
| 20260830233104 | 30 | 300 | 1.6 | 6.4 | 0.00 | 0.00 | 0.00 | 23 | 1012.2 |
| 20260830231503 | 30 | 189 | 3.2 | 9.7 | 0.00 | 0.00 | 0.00 | 23 | 1012.3 |
| 20260830230001 | 30 | 83 | 1.6 | 9.7 | 0.00 | 0.00 | 0.00 | 25 | 1012.4 |
| 20260830224602 | 31 | 162 | 3.2 | 11.3 | 0.00 | 0.00 | 0.00 | 25 | 1012.4 |
| 20260830224502 | 31 | 170 | 1.6 | 4.8 | 0.00 | 0.00 | 0.00 | 26 | 1012.4 |
| 20260830223108 | 31 | 198 | 1.6 | 11.3 | 0.00 | 0.00 | 0.00 | 26 | 1012.6 |
| 20260830223002 | 30 | 223 | 1.6 | 11.3 | 0.00 | 0.00 | 0.00 | 27 | 1012.6 |
| 20260830221502 | 30 | 125 | 3.2 | 9.7 | 0.00 | 0.00 | 0.00 | 27 | 1012.9 |
| 20260830220003 | 30 | 185 | 3.2 | 9.7 | 0.00 | 0.00 | 0.00 | 26 | 1013.0 |
| 20260830214503 | 30 | 202 | 3.2 | 8.0 | 0.00 | 0.00 | 0.00 | 28 | 1013.3 |
| 20260830213004 | 30 | 143 | 3.2 | 8.0 | 0.00 | 0.00 | 0.00 | 27 | 1013.4 |
| 20260830211503 | 30 | 124 | 1.6 | 6.4 | 0.00 | 0.00 | 0.00 | 28 | 1013.5 |
| 20260830210002 | 29 | 152 | 3.2 | 9.7 | 0.00 | 0.00 | 0.00 | 28 | 1013.6 |
| 20260830204503 | 29 | 339 | 1.6 | 6.4 | 0.00 | 0.00 | 0.00 | 28 | 1013.6 |
| 20260830203003 | 29 | 124 | 1.6 | 4.8 | 0.00 | 0.00 | 0.00 | 29 | 1013.7 |
| 20260830201502 | 28 | 148 | 4.8 | 8.0 | 0.00 | 0.00 | 0.00 | 29 | 1013.8 |
| 20260830200002 | 28 | 143 | 1.6 | 6.4 | 0.00 | 0.00 | 0.00 | 29 | 1013.9 |
| 20260830194503 | 27 | 143 | 1.6 | 8.0 | 0.00 | 0.00 | 0.00 | 30 | 1013.9 |
| 20260830193006 | 27 | 201 | 3.2 | 6.4 | 0.00 | 0.00 | 0.00 | 31 | 1013.9 |
| 20260830191507 | 27 | 233 | 3.2 | 8.0 | 0.00 | 0.00 | 0.00 | 32 | 1014.2 |
| 20260830190002 | 26 | 261 | 1.6 | 6.4 | 0.00 | 0.00 | 0.00 | 32 | 1014.2 |
| 20260830184502 | 26 | 291 | 3.2 | 9.7 | 0.00 | 0.00 | 0.00 | 33 | 1014.2 |
| 20260830183002 | 26 | 87 | 3.2 | 11.3 | 0.00 | 0.00 | 0.00 | 34 | 1014.4 |
| 20260830181503 | 26 | 132 | 1.6 | 8.0 | 0.00 | 0.00 | 0.00 | 33 | 1014.4 |
| 20260830180002 | 25 | 208 | 1.6 | 4.8 | 0.00 | 0.00 | 0.00 | 34 | 1014.4 |
| 20260830174502 | 25 | 176 | 1.6 | 6.4 | 0.00 | 0.00 | 0.00 | 34 | 1014.5 |
| 20260830173002 | 24 | 175 | 3.2 | 8.0 | 0.00 | 0.00 | 0.00 | 35 | 1014.6 |
| 20260830171503 | 23 | 249 | 1.6 | 6.4 | 0.00 | 0.00 | 0.00 | 36 | 1014.6 |
| 20260830170003 | 23 | 188 | 1.6 | 6.4 | 0.00 | 0.00 | 0.00 | 36 | 1014.5 |
| 20260830164624 | 22 | 213 | 0.0 | 3.2 | 0.00 | 0.00 | 0.00 | 38 | 1014.4 |
| 20260830163005 | 22 | 162 | 1.6 | 4.8 | 0.00 | 0.00 | 0.00 | 38 | 1014.4 |
| 20260830161502 | 21 | 247 | 1.6 | 4.8 | 0.00 | 0.00 | 0.00 | 40 | 1014.4 |
| 20260830160002 | 21 | 152 | 1.6 | 3.2 | 0.00 | 0.00 | 0.00 | 40 | 1014.4 |
| 20260830154503 | 20 | 228 | 1.6 | 3.2 | 0.00 | 0.00 | 0.00 | 41 | 1014.4 |
| 20260830153002 | 19 | 116 | 0.0 | 3.2 | 0.00 | 0.00 | 0.00 | 46 | 1014.4 |
| 20260830151504 | 17 | 49 | 0.0 | 1.6 | 0.00 | 0.00 | 0.00 | 55 | 1014.5 |
| 20260830150002 | 15 | 49 | 0.0 | 1.6 | 0.00 | 0.00 | 0.00 | 62 | 1014.5 |
| 20260830144503 | 12 | 49 | 0.0 | 1.6 | 0.00 | 0.00 | 0.00 | 66 | 1014.3 |
| 20260830143003 | 11 | 49 | 0.0 | 1.6 | 0.00 | 0.00 | 0.00 | 69 | 1014.3 |
| 20260830141507 | 11 | 49 | 0.0 | 3.2 | 0.00 | 0.00 | 0.00 | 71 | 1014.1 |
| 20260830140003 | 10 | 49 | 0.0 | 1.6 | 0.00 | 0.00 | 0.00 | 70 | 1013.9 |
| 20260830134503 | 11 | 49 | 0.0 | 0.0 | 0.00 | 0.00 | 0.00 | 69 | 1013.8 |
| 20260830133111 | 11 | 49 | 0.0 | 1.6 | 0.00 | 0.00 | 0.00 | 69 | 1013.7 |
| 20260830133003 | 11 | 49 | 0.0 | 1.6 | 0.00 | 0.00 | 0.00 | 69 | 1013.7 |
| 20260830131503 | 11 | 49 | 0.0 | 0.0 | 0.00 | 0.00 | 0.00 | 67 | 1013.6 |
| 20260830130002 | 11 | 49 | 0.0 | 0.0 | 0.00 | 0.00 | 0.00 | 66 | 1013.5 |
| 20260830124502 | 11 | 49 | 0.0 | 3.2 | 0.00 | 0.00 | 0.00 | 66 | 1013.2 |
| 20260830123008 | 11 | 39 | 0.0 | 3.2 | 0.00 | 0.00 | 0.00 | 66 | 1013.1 |
| 20260830121605 | 11 | 32 | 0.0 | 1.6 | 0.00 | 0.00 | 0.00 | 65 | 1013.0 |
| 20260830120005 | 12 | 32 | 0.0 | 3.2 | 0.00 | 0.00 | 0.00 | 64 | 1013.1 |
| 20260830114506 | 12 | 32 | 1.6 | 3.2 | 0.00 | 0.00 | 0.00 | 64 | 1013.1 |
| 20260830113002 | 12 | 345 | 0.0 | 1.6 | 0.00 | 0.00 | 0.00 | 61 | 1013.0 |
| 20260830111503 | 13 | 345 | 0.0 | 1.6 | 0.00 | 0.00 | 0.00 | 60 | 1013.0 |
| 20260830110002 | 13 | 345 | 0.0 | 1.6 | 0.00 | 0.00 | 0.00 | 59 | 1012.9 |
| 20260830104502 | 13 | 345 | 0.0 | 0.0 | 0.00 | 0.00 | 0.00 | 57 | 1013.0 |
| 20260830101613 | 15 | 345 | 0.0 | 1.6 | 0.00 | 0.00 | 0.00 | 54 | 1013.1 |
| 20260830100059 | 15 | 345 | 0.0 | 0.0 | 0.00 | 0.00 | 0.00 | 52 | 1012.9 |
| 20260830100003 | 15 | 345 | 0.0 | 0.0 | 0.00 | 0.00 | 0.00 | 51 | 1012.9 |
| 20260830094508 | 16 | 345 | 0.0 | 1.6 | 0.00 | 0.00 | 0.00 | 49 | 1013.0 |
| 20260830093003 | 16 | 345 | 0.0 | 1.6 | 0.00 | 0.00 | 0.00 | 47 | 1012.8 |
| 20260830091503 | 17 | 35 | 0.0 | 6.4 | 0.00 | 0.00 | 0.00 | 45 | 1012.8 |
| 20260830090001 | 16 | 51 | 0.0 | 3.2 | 0.00 | 0.00 | 0.00 | 46 | 1012.8 |
| 20260830084602 | 16 | 25 | 0.0 | 3.2 | 0.00 | 0.00 | 0.00 | 47 | 1012.9 |
| 20260830083003 | 16 | 28 | 0.0 | 3.2 | 0.00 | 0.00 | 0.00 | 47 | 1013.1 |
| 20260830081602 | 16 | 352 | 0.0 | 3.2 | 0.00 | 0.00 | 0.00 | 49 | 1013.0 |
| 20260830080003 | 16 | 349 | 0.0 | 3.2 | 0.00 | 0.00 | 0.00 | 49 | 1013.1 |
| 20260830073002 | 17 | 35 | 0.0 | 4.8 | 0.00 | 0.00 | 0.00 | 48 | 1013.2 |
| 20260830071503 | 16 | 16 | 0.0 | 1.6 | 0.00 | 0.00 | 0.00 | 49 | 1013.1 |
| 20260830070005 | 16 | 3 | 0.0 | 3.2 | 0.00 | 0.00 | 0.00 | 49 | 1013.1 |
| 20260830064502 | 17 | 321 | 0.0 | 1.6 | 0.00 | 0.00 | 0.00 | 50 | 1013.2 |
| 20260830063002 | 17 | 321 | 0.0 | 1.6 | 0.00 | 0.00 | 0.00 | 48 | 1013.3 |
| 20260830061503 | 17 | 321 | 0.0 | 3.2 | 0.00 | 0.00 | 0.00 | 48 | 1013.3 |
| 20260830060004 | 17 | 348 | 0.0 | 1.6 | 0.00 | 0.00 | 0.00 | 48 | 1013.3 |
| 20260830054608 | 17 | 348 | 0.0 | 3.2 | 0.00 | 0.00 | 0.00 | 48 | 1013.4 |
| 20260830053002 | 18 | 25 | 0.0 | 1.6 | 0.00 | 0.00 | 0.00 | 48 | 1013.5 |
| 20260830051502 | 18 | 45 | 0.0 | 3.2 | 0.00 | 0.00 | 0.00 | 48 | 1013.3 |
| 20260830050003 | 18 | 72 | 0.0 | 1.6 | 0.00 | 0.00 | 0.00 | 46 | 1013.4 |
| 20260830044504 | 19 | 72 | 0.0 | 1.6 | 0.00 | 0.00 | 0.00 | 44 | 1013.4 |
| 20260830043002 | 20 | 135 | 0.0 | 1.6 | 0.00 | 0.00 | 0.00 | 43 | 1013.3 |
| 20260830041502 | 20 | 135 | 0.0 | 1.6 | 0.00 | 0.00 | 0.00 | 41 | 1013.3 |
| 20260830040106 | 21 | 135 | 0.0 | 1.6 | 0.00 | 0.00 | 0.00 | 39 | 1013.0 |
| 20260830034502 | 22 | 135 | 0.0 | 1.6 | 0.00 | 0.00 | 0.00 | 37 | 1012.9 |
| 20260830033002 | 22 | 135 | 0.0 | 1.6 | 0.00 | 0.00 | 0.00 | 35 | 1012.7 |
| 20260830031503 | 23 | 179 | 0.0 | 1.6 | 0.00 | 0.00 | 0.00 | 32 | 1012.6 |